| time (UTC) | temp F | wind direction | speed MPH | gust MPH | rain 1hr in | rain 24hr in | rain mn in | humidity % | barometer mb |
| 20260505023051 | 89 | 284 | 6.0 | 0.0 | 0.00 | 0.00 | 0.00 | 47 | |
| 20260505022542 | 89 | 267 | 5.0 | 0.0 | 0.00 | 0.00 | 0.00 | 49 | |
| 20260505022034 | 89 | 281 | 2.0 | 0.0 | 0.00 | 0.00 | 0.00 | 48 | |
| 20260505021525 | 89 | 318 | 4.0 | 0.0 | 0.00 | 0.00 | 0.00 | 48 | |
| 20260505021016 | 89 | 347 | 2.0 | 0.0 | 0.00 | 0.00 | 0.00 | 50 | |
| 20260505020508 | 89 | 273 | 3.0 | 0.0 | 0.00 | 0.00 | 0.00 | 50 | |
| 20260505015959 | 88 | 302 | 4.0 | 0.0 | 0.00 | 0.00 | 0.00 | 51 | |
| 20260505015451 | 88 | 288 | 3.0 | 0.0 | 0.00 | 0.00 | 0.00 | 48 | |
| 20260505013152 | 89 | 279 | 4.0 | 0.0 | 0.00 | 0.00 | 0.00 | 48 | |
| 20260505012644 | 89 | 281 | 4.0 | 0.0 | 0.00 | 0.00 | 0.00 | 49 | |
| 20260505012135 | 88 | 277 | 4.0 | 0.0 | 0.00 | 0.00 | 0.00 | 46 | |
| 20260505011626 | 88 | 304 | 3.0 | 0.0 | 0.00 | 0.00 | 0.00 | 46 | |
| 20260505011117 | 88 | 278 | 4.0 | 0.0 | 0.00 | 0.00 | 0.00 | 45 | |
| 20260505010609 | 88 | 272 | 4.0 | 0.0 | 0.00 | 0.00 | 0.00 | 45 | |
| 20260505010101 | 88 | 267 | 4.0 | 0.0 | 0.00 | 0.00 | 0.00 | 45 | |
| 20260505005552 | 88 | 268 | 4.0 | 0.0 | 0.00 | 0.00 | 0.00 | 45 | |
| 20260505005043 | 88 | 322 | 3.0 | 0.0 | 0.00 | 0.00 | 0.00 | 45 | |
| 20260505004535 | 89 | 302 | 4.0 | 0.0 | 0.00 | 0.00 | 0.00 | 45 | |
| 20260505004026 | 89 | 285 | 3.0 | 0.0 | 0.00 | 0.00 | 0.00 | 45 | |
| 20260505003517 | 89 | 325 | 2.0 | 0.0 | 0.00 | 0.00 | 0.00 | 45 | |
| 20260505003008 | 89 | 283 | 2.0 | 0.0 | 0.00 | 0.00 | 0.00 | 45 | |
| 20260505002500 | 89 | 284 | 3.0 | 0.0 | 0.00 | 0.00 | 0.00 | 45 | |
| 20260505001951 | 89 | 275 | 4.0 | 0.0 | 0.00 | 0.00 | 0.00 | 45 | |
| 20260505001443 | 89 | 287 | 3.0 | 0.0 | 0.00 | 0.00 | 0.00 | 44 | |
| 20260505000935 | 89 | 280 | 4.0 | 0.0 | 0.00 | 0.00 | 0.00 | 44 | |
| 20260505000428 | 89 | 274 | 3.0 | 0.0 | 0.00 | 0.00 | 0.00 | 45 | |
| 20260504235918 | 89 | 266 | 5.0 | 0.0 | 0.00 | 0.00 | 0.00 | 45 | |
| 20260504235410 | 89 | 267 | 3.0 | 0.0 | 0.00 | 0.00 | 0.00 | 44 | |
| 20260504234901 | 89 | 319 | 2.0 | 0.0 | 0.00 | 0.00 | 0.00 | 44 | |
| 20260504234353 | 89 | 318 | 2.0 | 0.0 | 0.00 | 0.00 | 0.00 | 44 | |
| 20260504233844 | 89 | 317 | 3.0 | 0.0 | 0.00 | 0.00 | 0.00 | 44 | |
| 20260504233336 | 89 | 311 | 3.0 | 0.0 | 0.00 | 0.00 | 0.00 | 44 | |
| 20260504232827 | 89 | 262 | 3.0 | 0.0 | 0.00 | 0.00 | 0.00 | 44 | |
| 20260504232318 | 89 | 267 | 6.0 | 0.0 | 0.00 | 0.00 | 0.00 | 44 | |
| 20260504231810 | 89 | 273 | 3.0 | 0.0 | 0.00 | 0.00 | 0.00 | 44 | |
| 20260504231301 | 89 | 284 | 3.0 | 0.0 | 0.00 | 0.00 | 0.00 | 44 | |
| 20260504230753 | 89 | 267 | 4.0 | 0.0 | 0.00 | 0.00 | 0.00 | 44 | |
| 20260504230244 | 89 | 268 | 3.0 | 0.0 | 0.00 | 0.00 | 0.00 | 44 | |
| 20260504225736 | 89 | 278 | 2.0 | 0.0 | 0.00 | 0.00 | 0.00 | 44 | |
| 20260504225227 | 89 | 270 | 3.0 | 0.0 | 0.00 | 0.00 | 0.00 | 44 | |
| 20260504224718 | 89 | 288 | 4.0 | 0.0 | 0.00 | 0.00 | 0.00 | 44 | |
| 20260504224210 | 89 | 274 | 3.0 | 0.0 | 0.00 | 0.00 | 0.00 | 44 | |
| 20260504223701 | 89 | 276 | 4.0 | 0.0 | 0.00 | 0.00 | 0.00 | 44 | |
| 20260504223153 | 89 | 279 | 4.0 | 0.0 | 0.00 | 0.00 | 0.00 | 44 | |
| 20260504222644 | 89 | 287 | 3.0 | 0.0 | 0.00 | 0.00 | 0.00 | 44 | |
| 20260504222135 | 89 | 271 | 3.0 | 0.0 | 0.00 | 0.00 | 0.00 | 44 | |
| 20260504221627 | 89 | 300 | 2.0 | 0.0 | 0.00 | 0.00 | 0.00 | 44 | |
| 20260504221118 | 89 | 269 | 3.0 | 0.0 | 0.00 | 0.00 | 0.00 | 44 | |
| 20260504220610 | 89 | 329 | 3.0 | 0.0 | 0.00 | 0.00 | 0.00 | 44 | |
| 20260504220101 | 89 | 280 | 2.0 | 0.0 | 0.00 | 0.00 | 0.00 | 44 | |
| 20260504215552 | 89 | 279 | 3.0 | 0.0 | 0.00 | 0.00 | 0.00 | 44 | |
| 20260504215044 | 89 | 326 | 2.0 | 0.0 | 0.00 | 0.00 | 0.00 | 44 | |
| 20260504214535 | 89 | 293 | 2.0 | 0.0 | 0.00 | 0.00 | 0.00 | 44 | |
| 20260504214027 | 89 | 340 | 1.0 | 0.0 | 0.00 | 0.00 | 0.00 | 44 | |
| 20260504213518 | 89 | 307 | 2.0 | 0.0 | 0.00 | 0.00 | 0.00 | 44 | |
| 20260504213010 | 89 | 264 | 2.0 | 0.0 | 0.00 | 0.00 | 0.00 | 44 | |
| 20260504212501 | 89 | 340 | 3.0 | 0.0 | 0.00 | 0.00 | 0.00 | 44 | |
| 20260504211953 | 89 | 308 | 2.0 | 0.0 | 0.00 | 0.00 | 0.00 | 44 | |
| 20260504211444 | 89 | 298 | 3.0 | 0.0 | 0.00 | 0.00 | 0.00 | 44 | |
| 20260504210935 | 89 | 340 | 3.0 | 0.0 | 0.00 | 0.00 | 0.00 | 44 | |
| 20260504210427 | 89 | 254 | 2.0 | 0.0 | 0.00 | 0.00 | 0.00 | 44 | |
| 20260504205919 | 89 | 287 | 2.0 | 0.0 | 0.00 | 0.00 | 0.00 | 44 | |
| 20260504205410 | 89 | 295 | 2.0 | 0.0 | 0.00 | 0.00 | 0.00 | 44 | |
| 20260504204901 | 89 | 277 | 2.0 | 0.0 | 0.00 | 0.00 | 0.00 | 44 | |
| 20260504204353 | 89 | 314 | 1.0 | 0.0 | 0.00 | 0.00 | 0.00 | 44 | |
| 20260504203845 | 89 | 266 | 2.0 | 0.0 | 0.00 | 0.00 | 0.00 | 44 | |
| 20260504203336 | 90 | 277 | 3.0 | 0.0 | 0.00 | 0.00 | 0.00 | 44 | |
| 20260504202827 | 90 | 313 | 2.0 | 0.0 | 0.00 | 0.00 | 0.00 | 44 | |
| 20260504202319 | 90 | 293 | 2.0 | 0.0 | 0.00 | 0.00 | 0.00 | 44 | |
| 20260504201810 | 90 | 277 | 3.0 | 0.0 | 0.00 | 0.00 | 0.00 | 44 | |
| 20260504201302 | 90 | 325 | 2.0 | 0.0 | 0.00 | 0.00 | 0.00 | 44 | |
| 20260504200753 | 90 | 271 | 2.0 | 0.0 | 0.00 | 0.00 | 0.00 | 44 | |
| 20260504200244 | 90 | 288 | 3.0 | 0.0 | 0.00 | 0.00 | 0.00 | 44 | |
| 20260504195736 | 90 | 284 | 3.0 | 0.0 | 0.00 | 0.00 | 0.00 | 44 | |
| 20260504195228 | 90 | 276 | 3.0 | 0.0 | 0.00 | 0.00 | 0.00 | 44 | |
| 20260504194719 | 90 | 270 | 3.0 | 0.0 | 0.00 | 0.00 | 0.00 | 44 | |
| 20260504194210 | 90 | 273 | 4.0 | 0.0 | 0.00 | 0.00 | 0.00 | 44 | |
| 20260504193701 | 90 | 289 | 3.0 | 0.0 | 0.00 | 0.00 | 0.00 | 44 | |
| 20260504193150 | 90 | 264 | 4.0 | 0.0 | 0.00 | 0.00 | 0.00 | 44 | |
| 20260504192641 | 90 | 284 | 4.0 | 0.0 | 0.00 | 0.00 | 0.00 | 44 | |
| 20260504192132 | 90 | 286 | 3.0 | 0.0 | 0.00 | 0.00 | 0.00 | 44 | |
| 20260504191624 | 90 | 297 | 3.0 | 0.0 | 0.00 | 0.00 | 0.00 | 44 | |
| 20260504191115 | 90 | 276 | 3.0 | 0.0 | 0.00 | 0.00 | 0.00 | 44 | |
| 20260504190607 | 90 | 269 | 4.0 | 0.0 | 0.00 | 0.00 | 0.00 | 44 | |
| 20260504190059 | 90 | 281 | 5.0 | 0.0 | 0.00 | 0.00 | 0.00 | 44 | |
| 20260504185550 | 91 | 280 | 3.0 | 0.0 | 0.00 | 0.00 | 0.00 | 43 | |
| 20260504185042 | 91 | 271 | 5.0 | 0.0 | 0.00 | 0.00 | 0.00 | 43 | |
| 20260504184533 | 91 | 312 | 3.0 | 0.0 | 0.00 | 0.00 | 0.00 | 43 | |
| 20260504184024 | 91 | 299 | 4.0 | 0.0 | 0.00 | 0.00 | 0.00 | 43 | |
| 20260504183515 | 91 | 276 | 3.0 | 0.0 | 0.00 | 0.00 | 0.17 | 43 | |
| 20260504183007 | 91 | 322 | 3.0 | 0.0 | 0.00 | 0.00 | 0.17 | 43 | |
| 20260504182458 | 91 | 305 | 3.0 | 0.0 | 0.00 | 0.00 | 0.17 | 44 | |
| 20260504181946 | 91 | 320 | 3.0 | 0.0 | 0.00 | 0.00 | 0.17 | 43 | |
| 20260504181438 | 91 | 269 | 3.0 | 0.0 | 0.00 | 0.00 | 0.17 | 42 | |
| 20260504180929 | 91 | 289 | 3.0 | 0.0 | 0.00 | 0.00 | 0.17 | 43 | |
| 20260504174435 | 92 | 316 | 1.0 | 0.0 | 0.00 | 0.00 | 0.17 | 41 | |
| 20260504173314 | 92 | 316 | 1.0 | 0.0 | 0.00 | 0.00 | 0.17 | 41 | |
| 20260504172805 | 92 | 287 | 3.0 | 0.0 | 0.00 | 0.00 | 0.17 | 41 | |
| 20260504172252 | 92 | 287 | 3.0 | 0.0 | 0.00 | 0.00 | 0.17 | 41 | |
| 20260504171740 | 92 | 266 | 4.0 | 0.0 | 0.00 | 0.00 | 0.17 | 41 | |
| 20260504171227 | 92 | 266 | 4.0 | 0.0 | 0.00 | 0.00 | 0.17 | 41 | |
| 20260504170719 | 92 | 265 | 3.0 | 0.0 | 0.00 | 0.00 | 0.17 | 41 | |
| 20260504170210 | 92 | 276 | 2.0 | 0.0 | 0.00 | 0.00 | 0.17 | 41 | |
| 20260504081918 | 214 | 280 | 5.0 | 0.0 | 0.00 | 0.00 | 0.17 | 21 | |
| 20260504081410 | 214 | 274 | 6.0 | 0.0 | 0.00 | 0.00 | 0.17 | 21 | |
| 20260504080901 | 214 | 317 | 7.0 | 0.0 | 0.00 | 0.00 | 0.17 | 21 | |
| 20260504080353 | 214 | 300 | 4.0 | 0.0 | 0.00 | 0.00 | 0.17 | 21 | |
| 20260504070212 | 214 | 272 | 6.0 | 0.0 | 0.00 | 0.00 | 0.17 | 21 | |
| 20260504050528 | 214 | 292 | 4.0 | 0.0 | 0.00 | 0.00 | 0.00 | 21 | |
| 20260504050019 | 214 | 282 | 4.0 | 0.0 | 0.00 | 0.00 | 0.00 | 21 | |
| 20260504045510 | 214 | 270 | 4.0 | 0.0 | 0.00 | 0.00 | 0.00 | 21 | |
| 20260504045002 | 214 | 295 | 3.0 | 0.0 | 0.00 | 0.00 | 0.00 | 21 | |
| 20260504044453 | 214 | 294 | 5.0 | 0.0 | 0.00 | 0.00 | 0.00 | 21 | |
| 20260504043944 | 214 | 280 | 4.0 | 0.0 | 0.00 | 0.00 | 0.00 | 21 | |
| 20260504043421 | 214 | 280 | 4.0 | 0.0 | 0.00 | 0.00 | 0.00 | 21 | |
| 20260504042913 | 214 | 302 | 3.0 | 0.0 | 0.00 | 0.00 | 0.00 | 21 | |
| 20260504042405 | 214 | 319 | 7.0 | 0.0 | 0.00 | 0.00 | 0.00 | 21 | |
| 20260504041856 | 214 | 279 | 3.0 | 0.0 | 0.00 | 0.00 | 0.00 | 21 | |
| 20260504041348 | 214 | 316 | 3.0 | 0.0 | 0.00 | 0.00 | 0.00 | 21 | |
| 20260504040839 | 214 | 262 | 4.0 | 0.0 | 0.00 | 0.00 | 0.00 | 21 | |
| 20260504040331 | 214 | 262 | 3.0 | 0.0 | 0.00 | 0.00 | 0.00 | 21 | |
| 20260504035822 | 214 | 255 | 4.0 | 0.0 | 0.00 | 0.00 | 0.00 | 21 | |
| 20260504035314 | 214 | 247 | 4.0 | 0.0 | 0.00 | 0.00 | 0.00 | 21 | |
| 20260504034805 | 214 | 258 | 5.0 | 0.0 | 0.00 | 0.00 | 0.00 | 21 | |
| 20260504034256 | 214 | 268 | 5.0 | 0.0 | 0.00 | 0.00 | 0.00 | 21 | |
| 20260504033748 | 214 | 240 | 3.0 | 0.0 | 0.00 | 0.00 | 0.00 | 21 | |
| 20260504033240 | 214 | 258 | 2.0 | 0.0 | 0.00 | 0.00 | 0.00 | 21 | |
| 20260504032731 | 214 | 269 | 3.0 | 0.0 | 0.00 | 0.00 | 0.00 | 21 | |
| 20260504032222 | 214 | 278 | 3.0 | 0.0 | 0.00 | 0.00 | 0.00 | 21 | |
| 20260504031714 | 214 | 215 | 1.0 | 0.0 | 0.00 | 0.00 | 0.00 | 21 | |
| 20260504031205 | 214 | 284 | 3.0 | 0.0 | 0.00 | 0.00 | 0.00 | 21 | |
| 20260504030657 | 214 | 305 | 3.0 | 0.0 | 0.00 | 0.00 | 0.00 | 21 | |
| 20260504030148 | 214 | 270 | 3.0 | 0.0 | 0.00 | 0.00 | 0.00 | 21 | |
| 20260504025640 | 214 | 273 | 3.0 | 0.0 | 0.00 | 0.00 | 0.00 | 21 | |
| 20260504025131 | 214 | 326 | 2.0 | 0.0 | 0.00 | 0.00 | 0.00 | 21 | |
| 20260504024623 | 214 | 273 | 4.0 | 0.0 | 0.00 | 0.00 | 0.00 | 21 | |
| 20260504024114 | 214 | 286 | 4.0 | 0.0 | 0.00 | 0.00 | 0.00 | 21 | |
| 20260504023606 | 214 | 270 | 3.0 | 0.0 | 0.00 | 0.00 | 0.00 | 21 |